Location: Erlenbrunn
(49.1717°N, 7.6142°E)
Time: 10:09:14
(UTC+00:00)

Cosmos 44 - Pass Details

Date: 25 November 2020
Orbit: 574 x 788 km, 65.1° (Epoch: 25 January)

Event Time Altitude Azimuth Distance (km) Brightness Sun altitude
Rises 17:19:30 0° 321° (NW) 3,174 7.0 -16.1°
Reaches altitude 10° 17:21:51 10° 324° (NW) 2,276 6.2 -16.5°
Maximum altitude 17:27:07 73° 49° (NE) 811 3.4 -17.3°
Enters shadow 17:31:54 13° 133° (SE) 2,108 5.4 -18.1°
